This demonstration page uses our WeatherBlox Daily Observations layout. Learn more.

Left ArrowRight Arrow

36.17497, -115.13722

Hourly Observations for May 16, 2021

Temp ( °F °C ) Dew Point ( °F °C ) Humidity (%) Winds ( mph kmh ) Pressure ( in mb ) Visibility ( mi km ) Precip ( " mm )
12:53 am 00:53 Clear 73 22.8 29 -1.7 19 19 S 12 19 29.62 1003 10 16.0934 N/A
1:53 am 01:53 Clear 72 22.2 31 -0.6 22 22 SSW 9 15 29.62 1003 10 16.0934 N/A
2:53 am 02:53 Clear 71 21.7 33 0.6 25 25 SSW 15 24 29.63 1004 10 16.0934 N/A
3:53 am 03:53 Clear 68 20 36 2.2 31 31 S 13 20 29.64 1004 10 16.0934 N/A
4:53 am 04:53 Clear 66 18.9 38 3.3 36 36 S 8 13 29.66 1004 10 16.0934 N/A
5:53 am 05:53 Sunny 65 18.3 38 3.3 37 37 N 7 11 29.67 1005 10 16.0934 N/A
6:53 am 06:53 Sunny 67 19.4 39 3.9 36 36 ENE 7 11 29.69 1006 10 16.0934 N/A
7:53 am 07:53 Sunny 69 20.6 38 3.3 32 32 NNE 7 11 29.71 1006 10 16.0934 N/A
8:53 am 08:53 Sunny 70 21.1 38 3.3 31 31 N N/A 29.73 1007 10 16.0934 N/A
9:53 am 09:53 Sunny 74 23.3 37 2.8 26 26 N N/A 29.73 1007 10 16.0934 N/A
10:53 am 10:53 Sunny 76 24.4 34 1.1 22 22 VRB 3 6 29.74 1007 10 16.0934 N/A
11:53 am 11:53 Sunny 78 25.6 33 0.6 19 19 N N/A 29.73 1007 10 16.0934 N/A
12:53 pm 12:53 Sunny 80 26.7 32 undefined 17 17 VRB 6 9 29.72 1006 10 16.0934 N/A
1:53 pm 13:53 Sunny 83 28.3 35 1.7 18 18 undefined N/A 29.7 1006 10 16.0934 N/A
2:53 pm 14:53 Mostly Cloudy 82 27.8 33 0.6 17 17 WSW 12 19 29.69 1005 10 16.0934 N/A
3:53 pm 15:53 Mostly Cloudy 80 26.7 35 1.7 20 20 SE 8 13 29.71 1006 10 16.0934 N/A
4:53 pm 16:53 Mostly Sunny 78 25.6 35 1.7 21 21 S 12 19 29.74 1007 10 16.0934 N/A
5:53 pm 17:53 Cloudy 75 23.9 41 5 29 29 WSW 22 35 29.75 1008 10 16.0934 N/A
6:02 pm 18:02 Mostly Cloudy 74 23.3 41 5 31 31 SW 17 28 29.66 1004 10 16.0934 N/A
6:53 pm 18:53 Sunny 71 21.7 40 4.4 32 32 W 28 44 29.75 1007 10 16.0934 N/A
7:53 pm 19:53 Clear 70 21.1 40 4.4 34 34 W 21 33 29.74 1007 10 16.0934 0.001 0.001
8:53 pm 20:53 Clear 72 22.2 38 3.3 29 29 W 10 17 29.74 1007 10 16.0934 N/A
9:53 pm 21:53 Clear 70 21.1 37 2.8 30 30 N N/A 29.76 1008 10 16.0934 N/A
10:53 pm 22:53 Clear 71 21.7 38 3.3 30 30 SSW 3 6 29.76 1008 10 16.0934 N/A
11:53 pm 23:53 Clear 68 20 38 3.3 33 33 N 3 6 29.76 1008 10 16.0934 N/A

Powered by AerisWeather